Weather History for Ft Pierce, FL

Change the Weather History Date:

Tuesday, September 3, 2013

  Actual Average Record
Temperature  
Mean Temperature 80 °F -  
Max Temperature 89 °F 89 °F 96 °F (1947)
Min Temperature 71 °F 72 °F 66 °F (1999)
Cooling Degree Days 14    
Growing Degree Days 30 (Base 50)    
Moisture  
Dew Point 71 °F    
Average Humidity 85    
Maximum Humidity 96    
Minimum Humidity 59    
Precipitation  
Precipitation 0.00 in - - ()
Sea Level Pressure  
Sea Level Pressure 29.98 in    
Wind  
Wind Speed 1 mph (NNE)    
Max Wind Speed 8 mph    
Max Gust Speed -    
Visibility 6 miles    
Events Fog    
Averages and records for this station are not official NWS values.
T = Trace of Precipitation, MM = Missing Value Source: NWS Daily Summary

Daily Weather History Graph

Daily Weather History Graph

Search for Another Location

Airport:

Trip Planner

Search our weather history database for the weather conditions in past years. The results will help you decide how hot, cold, wet, or windy it might be!

Date:

Astronomy

Sep. 03, 2013 Rise Set
Actual Time 7:01 AM EDT 7:39 PM EDT
Civil Twilight 6:37 AM EDT 8:03 PM EDT
Nautical Twilight 6:10 AM EDT 8:30 PM EDT
Astronomical Twilight 5:41 AM EDT 8:59 PM EDT
Moon 5:18 AM EDT (9/3) 6:23 PM EDT (9/3)
Length of Visible Light 13h 25m
Length of Day
12h 38m
Waning Crescent, 3% of the Moon is Illuminated
Sep 3
Waning Crescent
Sep 5
New
Sep 12
First Quarter
Sep 19
Full
Sep 26
Last Quarter

Hourly Weather History & Observations

Time (EDT) Temp. Heat Index Dew Point Humidity Pressure Visibility Wind Dir Wind Speed Gust Speed Precip Events Conditions
12:53 AM 73.9 °F - 71.1 °F 91% 29.99 in 10.0 mi Calm Calm - N/A   Clear
1:53 AM 73.0 °F - 71.1 °F 93% 29.98 in 6.0 mi Calm Calm - N/A   Clear
2:53 AM 72.0 °F - 70.0 °F 93% 29.97 in 2.5 mi Calm Calm - N/A   Clear
3:01 AM 71.6 °F - 69.8 °F 94% 29.97 in 1.5 mi Calm Calm - N/A   Clear
3:17 AM 71.6 °F - 69.8 °F 94% 29.97 in 3.0 mi Calm Calm - N/A   Clear
3:53 AM 73.0 °F - 71.1 °F 93% 29.96 in 6.0 mi SW 3.5 mph - N/A   Clear
4:37 AM 71.6 °F - 69.8 °F 94% 29.96 in 1.5 mi WNW 3.5 mph - N/A   Clear
4:53 AM 72.0 °F - 70.0 °F 93% 29.96 in 2.5 mi Calm Calm - N/A   Clear
4:59 AM 71.6 °F - 69.8 °F 94% 29.96 in 1.2 mi Calm Calm - N/A   Partly Cloudy
5:01 AM 71.6 °F - 69.8 °F 94% 29.96 in 0.8 mi Calm Calm - N/A   Mist
5:07 AM 71.6 °F - 69.8 °F 94% 29.96 in 0.2 mi Calm Calm - N/A Fog Fog
5:20 AM 71.6 °F - 69.8 °F 94% 29.96 in 0.2 mi Calm Calm - N/A Fog Fog
5:53 AM 71.1 °F - 70.0 °F 96% 29.96 in 0.2 mi Calm Calm - N/A Fog Fog
6:19 AM 71.6 °F - 69.8 °F 94% 29.97 in 0.5 mi Calm Calm - N/A Fog Fog
6:29 AM 71.6 °F - 69.8 °F 94% 29.97 in 0.2 mi Calm Calm - N/A Fog Fog
6:53 AM 71.1 °F - 70.0 °F 96% 29.98 in 0.2 mi WNW 3.5 mph - N/A Fog Fog
7:00 AM 71.6 °F - 69.8 °F 94% 29.98 in 0.5 mi Calm Calm - N/A Fog Fog
7:07 AM 71.6 °F - 69.8 °F 94% 29.98 in 0.2 mi Calm Calm - N/A Fog Fog
7:38 AM 73.4 °F - 71.6 °F 94% 29.99 in 1.0 mi Calm Calm - N/A   Mist
7:43 AM 73.4 °F - 71.6 °F 94% 29.99 in 0.5 mi Calm Calm - N/A Fog Fog
7:51 AM 73.4 °F - 71.6 °F 94% 29.99 in 1.0 mi Calm Calm - N/A   Mist
7:53 AM 73.9 °F - 72.0 °F 93% 29.99 in 8.0 mi Calm Calm - N/A   Clear
8:00 AM 73.4 °F - 71.6 °F 94% 30.00 in 7.0 mi Calm Calm - N/A   Scattered Clouds
8:53 AM 77.0 °F - 73.0 °F 88% 30.00 in 10.0 mi West 3.5 mph - N/A   Clear
9:53 AM 82.9 °F 88.8 °F 73.0 °F 72% 30.01 in 10.0 mi WNW 5.8 mph - N/A   Clear
10:53 AM 86.0 °F 91.5 °F 71.1 °F 61% 30.03 in 10.0 mi NW 3.5 mph - N/A   Clear
11:53 AM 87.1 °F 92.8 °F 71.1 °F 59% 30.04 in 10.0 mi Calm Calm - N/A   Scattered Clouds
12:53 PM 88.0 °F 96.5 °F 73.9 °F 63% 30.02 in 10.0 mi Variable 6.9 mph - N/A   Mostly Cloudy
1:53 PM 87.1 °F 94.5 °F 73.0 °F 63% 30.01 in 10.0 mi ENE 8.1 mph - N/A   Scattered Clouds
2:53 PM 87.1 °F 95.4 °F 73.9 °F 65% 29.98 in 10.0 mi ENE 8.1 mph - N/A   Scattered Clouds
3:53 PM 84.9 °F 92.1 °F 73.9 °F 69% 29.96 in 10.0 mi East 8.1 mph - N/A   Clear
4:53 PM 84.0 °F 91.2 °F 73.9 °F 72% 29.97 in 10.0 mi East 6.9 mph - N/A   Mostly Cloudy
5:53 PM 84.0 °F 90.2 °F 73.0 °F 69% 29.97 in 10.0 mi ESE 6.9 mph - N/A   Clear
6:53 PM 84.0 °F 90.2 °F 73.0 °F 69% 29.96 in 10.0 mi SE 4.6 mph - 0.00 in   Scattered Clouds
7:53 PM 82.9 °F 88.8 °F 73.0 °F 72% 29.97 in 10.0 mi Calm Calm - N/A   Mostly Cloudy
8:53 PM 80.1 °F 84.2 °F 73.0 °F 79% 29.99 in 10.0 mi Calm Calm - N/A   Clear
9:53 PM 78.1 °F - 73.9 °F 87% 30.02 in 10.0 mi Calm Calm - N/A   Clear
10:53 PM 77.0 °F - 73.0 °F 88% 30.03 in 8.0 mi Calm Calm - N/A   Clear
11:53 PM 77.0 °F - 73.0 °F 88% 30.03 in 10.0 mi Calm Calm - N/A   Clear